{"data":{"norad_id":57173,"intl_designator":"2023-091H","name":"2023-091H","alt_names":[],"object_type":"PAYLOAD","status":"ACTIVE","operator":null,"country":"CIS","launch_date":"2023-06-27","launch_site_code":"VOSTO","launch_vehicle":null,"mission":null,"orbit_class":"UNKNOWN","rcs_meters":null,"size_class":null,"mass_kg":null,"dimensions":null,"purposes":[],"wikipedia_slug":null,"has_3d_model":false,"image_url":null,"decayed_at":null,"tle_current":{"epoch":"2026-05-25T04:51:34.733376Z","epoch_age_seconds":64522,"freshness":"FRESH","line1":"1 57173U 23091H   26145.20248534  .00011226  00000+0  41228-3 0  9995","line2":"2 57173  97.5061 208.2165 0010027 185.5353 174.5777 15.28055238160797","mean_motion":15.28055238,"eccentricity":0.0010027,"inclination_deg":97.5061,"raan_deg":208.2165,"arg_perigee_deg":185.5353,"mean_anomaly_deg":174.5777,"bstar":0.00041228,"rev_number":16079,"period_min":94.237430963867,"perigee_km":474.74814653464,"apogee_km":488.50471611982,"semimajor_km":6859.7634313272,"source":"CELESTRAK","updated_at":"2026-05-25T13:37:59.905623Z"}}}